THY1830 LFPG-LTFM

Flight info

Callsign THY1830
Flight time 2h 55m
Altitude 37000
Route LANVI DCT BEGAR DCT TRA DCT GAMSA DCT UMVEG DCT BEDOX DCT NASSY DCT OKLOP DCT ETIDA T390 RILEX
Aircraft A21N/M-SDE2E3FGHIRWXY/LB1

Departure

Time 2026-05-05 14:37
Airport Charles de Gaulle International Airport (LFPG)

Arrival

Time 2026-05-05 17:32
Airport İstanbul Airport (LTFM)
Time Latitude Longitude Altitude Speed Heading
2026-05-05 13:27 49.01438 2.53754 364 ft 0 kts 121°
2026-05-05 14:14 49.01439 2.53750 355 ft 3 kts 121°
2026-05-05 14:14 49.01453 2.53715 364 ft 4 kts 121°
2026-05-05 14:14 49.01466 2.53680 357 ft 4 kts 121°
2026-05-05 14:15 49.01480 2.53645 358 ft 4 kts 121°
2026-05-05 14:15 49.01492 2.53614 355 ft 1 kts 121°
2026-05-05 14:15 49.01493 2.53613 355 ft 0 kts 121°
2026-05-05 14:28 49.01496 2.53625 357 ft 1 kts 72°
2026-05-05 14:29 49.01503 2.53625 355 ft 1 kts 28°
2026-05-05 14:29 49.01540 2.53614 355 ft 10 kts 346°
2026-05-05 14:29 49.01614 2.53590 362 ft 11 kts 349°
2026-05-05 14:29 49.01689 2.53578 355 ft 10 kts 354°
2026-05-05 14:30 49.01757 2.53569 358 ft 9 kts 355°
2026-05-05 14:30 49.01814 2.53558 362 ft 8 kts 345°
2026-05-05 14:30 49.01847 2.53509 358 ft 6 kts 295°
2026-05-05 14:30 49.01853 2.53444 357 ft 6 kts 273°
2026-05-05 14:31 49.01853 2.53380 357 ft 6 kts 269°
2026-05-05 14:31 49.01852 2.53325 355 ft 5 kts 269°
2026-05-05 14:31 49.01852 2.53254 355 ft 8 kts 269°
2026-05-05 14:31 49.01851 2.53168 356 ft 8 kts 269°
2026-05-05 14:32 49.01851 2.53085 358 ft 7 kts 269°
2026-05-05 14:32 49.01849 2.53014 356 ft 6 kts 266°
2026-05-05 14:32 49.01844 2.52955 357 ft 5 kts 260°
2026-05-05 14:32 49.01836 2.52893 357 ft 7 kts 259°
2026-05-05 14:33 49.01828 2.52815 356 ft 7 kts 263°
2026-05-05 14:33 49.01822 2.52740 355 ft 7 kts 263°
2026-05-05 14:33 49.01816 2.52666 362 ft 9 kts 263°
2026-05-05 14:33 49.01807 2.52543 360 ft 13 kts 263°
2026-05-05 14:34 49.01813 2.52412 362 ft 12 kts 295°
2026-05-05 14:34 49.01867 2.52333 358 ft 10 kts 314°
2026-05-05 14:34 49.01879 2.52245 361 ft 8 kts 268°
2026-05-05 14:34 49.01889 2.52168 362 ft 7 kts 291°
2026-05-05 14:35 49.01932 2.52115 363 ft 9 kts 345°
2026-05-05 14:35 49.01986 2.52109 356 ft 5 kts 358°
2026-05-05 14:35 49.01994 2.52109 358 ft 4 kts 358°
2026-05-05 14:35 49.02036 2.52107 360 ft 7 kts 358°
2026-05-05 14:36 49.02084 2.52106 358 ft 7 kts
2026-05-05 14:36 49.02107 2.52155 353 ft 5 kts 77°
2026-05-05 14:36 49.02122 2.52355 356 ft 51 kts 85°
2026-05-05 14:36 49.02172 2.53278 357 ft 120 kts 85°
2026-05-05 14:37 49.02258 2.54830 361 ft 171 kts 84°
2026-05-05 14:37 49.02370 2.56722 826 ft 186 kts 83°
2026-05-05 14:37 49.02469 2.58816 1333 ft 209 kts 82°
2026-05-05 14:37 49.02586 2.61048 2123 ft 211 kts 83°
2026-05-05 14:38 49.02723 2.63361 2868 ft 230 kts 83°
2026-05-05 14:38 49.02871 2.65897 3512 ft 249 kts 85°
2026-05-05 14:38 49.03011 2.68622 4233 ft 264 kts 85°
2026-05-05 14:38 49.03157 2.71417 5229 ft 266 kts 85°
2026-05-05 14:39 49.03299 2.74256 6204 ft 270 kts 86°
2026-05-05 14:39 49.03437 2.77135 7177 ft 275 kts 86°
2026-05-05 14:39 49.03545 2.80074 8107 ft 280 kts 93°
2026-05-05 14:39 49.03116 2.82980 9042 ft 284 kts 109°
2026-05-05 14:40 49.02469 2.85845 9987 ft 288 kts 110°
2026-05-05 14:40 49.01803 2.88711 10550 ft 307 kts 110°
2026-05-05 14:40 49.01057 2.91883 10913 ft 330 kts 110°
2026-05-05 14:40 49.00277 2.95257 11483 ft 342 kts 110°
2026-05-05 14:41 48.99493 2.98685 12320 ft 345 kts 110°
2026-05-05 14:41 48.98702 3.02165 13127 ft 349 kts 110°
2026-05-05 14:41 48.97904 3.05680 13915 ft 353 kts 110°
2026-05-05 14:41 48.97093 3.09243 14680 ft 357 kts 110°
2026-05-05 14:42 48.96272 3.12831 15433 ft 360 kts 110°
2026-05-05 14:42 48.95438 3.16454 16132 ft 364 kts 111°
2026-05-05 14:42 48.94599 3.20108 16866 ft 367 kts 111°
2026-05-05 14:42 48.93751 3.23794 17497 ft 371 kts 111°
2026-05-05 14:43 48.92908 3.27467 18173 ft 374 kts 111°
2026-05-05 14:43 48.92034 3.31264 18751 ft 378 kts 111°
2026-05-05 14:43 48.91173 3.35002 19363 ft 381 kts 111°
2026-05-05 14:43 48.90277 3.38864 20037 ft 384 kts 111°
2026-05-05 14:44 48.89394 3.42645 20631 ft 386 kts 111°
2026-05-05 14:44 48.88494 3.46510 21181 ft 390 kts 111°
2026-05-05 14:44 48.87576 3.50409 21804 ft 393 kts 111°
2026-05-05 14:44 48.86653 3.54337 22362 ft 396 kts 111°
2026-05-05 14:45 48.85728 3.58291 22884 ft 399 kts 111°
2026-05-05 14:45 48.84792 3.62278 23401 ft 402 kts 111°
2026-05-05 14:45 48.83847 3.66291 23887 ft 405 kts 111°
2026-05-05 14:45 48.82894 3.70347 24377 ft 408 kts 111°
2026-05-05 14:46 48.81938 3.74416 24871 ft 410 kts 111°
2026-05-05 14:46 48.80979 3.78487 25356 ft 411 kts 111°
2026-05-05 14:46 48.80000 3.82608 25788 ft 415 kts 111°
2026-05-05 14:46 48.79027 3.86724 26254 ft 416 kts 111°
2026-05-05 14:47 48.78045 3.90871 26696 ft 418 kts 111°
2026-05-05 14:47 48.77062 3.95019 27126 ft 420 kts 112°
2026-05-05 14:47 48.76069 3.99190 27508 ft 422 kts 112°
2026-05-05 14:47 48.75068 4.03378 27896 ft 423 kts 112°
2026-05-05 14:48 48.74062 4.07589 28234 ft 426 kts 112°
2026-05-05 14:48 48.73393 4.10378 28475 ft 426 kts 112°
2026-05-05 14:48 48.72375 4.14610 28818 ft 428 kts 112°
2026-05-05 14:48 48.71351 4.18857 29149 ft 430 kts 112°
2026-05-05 14:49 48.69988 4.24495 29512 ft 432 kts 112°
2026-05-05 14:49 48.69288 4.27392 29729 ft 433 kts 112°
2026-05-05 14:49 48.68264 4.31627 30049 ft 434 kts 112°
2026-05-05 14:49 48.67225 4.35919 30361 ft 435 kts 113°
2026-05-05 14:50 48.66174 4.40239 30646 ft 437 kts 113°
2026-05-05 14:50 48.65124 4.44560 30937 ft 439 kts 113°
2026-05-05 14:50 48.64067 4.48901 31264 ft 439 kts 113°
2026-05-05 14:50 48.63013 4.53238 31660 ft 439 kts 113°
2026-05-05 14:51 48.61956 4.57560 32040 ft 438 kts 114°
2026-05-05 14:51 48.60896 4.61868 32378 ft 437 kts 114°
2026-05-05 14:51 48.59837 4.66171 32666 ft 437 kts 114°
2026-05-05 14:51 48.58777 4.70468 32999 ft 436 kts 114°
2026-05-05 14:52 48.57719 4.74750 33305 ft 436 kts 114°
2026-05-05 14:52 48.56658 4.79031 33615 ft 435 kts 114°
2026-05-05 14:52 48.55593 4.83321 33895 ft 435 kts 114°
2026-05-05 14:52 48.54536 4.87586 34177 ft 435 kts 115°
2026-05-05 14:53 48.53473 4.91866 34465 ft 435 kts 115°
2026-05-05 14:53 48.52408 4.96140 34649 ft 436 kts 115°
2026-05-05 14:53 48.51351 5.00377 34858 ft 437 kts 115°
2026-05-05 14:53 48.50275 5.04673 35075 ft 437 kts 115°
2026-05-05 14:54 48.49199 5.08967 35286 ft 437 kts 115°
2026-05-05 14:54 48.48119 5.13263 35457 ft 439 kts 115°
2026-05-05 14:54 48.47033 5.17564 35644 ft 440 kts 115°
2026-05-05 14:54 48.45946 5.21874 35850 ft 440 kts 115°
2026-05-05 14:55 48.44857 5.26191 36028 ft 441 kts 115°
2026-05-05 14:55 48.43766 5.30510 36217 ft 442 kts 115°
2026-05-05 14:55 48.42669 5.34845 36364 ft 443 kts 115°
2026-05-05 14:55 48.41568 5.39179 36517 ft 444 kts 115°
2026-05-05 14:56 48.40465 5.43514 36688 ft 443 kts 115°
2026-05-05 14:56 48.39363 5.47837 36861 ft 441 kts 115°
2026-05-05 14:56 48.37174 5.56369 36858 ft 434 kts 115°
2026-05-05 14:57 48.34997 5.64866 36851 ft 436 kts 115°
2026-05-05 14:57 48.32831 5.73309 36844 ft 436 kts 115°
2026-05-05 14:58 48.30653 5.81803 36845 ft 436 kts 114°
2026-05-05 14:58 48.28756 5.90471 36840 ft 438 kts 111°
2026-05-05 14:59 48.26920 5.99198 36837 ft 438 kts 112°
2026-05-05 14:59 48.25033 6.07888 36832 ft 437 kts 112°
2026-05-05 15:00 48.23448 6.15087 36836 ft 438 kts 112°
2026-05-05 15:00 48.21211 6.25217 36825 ft 437 kts 112°
2026-05-05 15:01 48.19311 6.33815 36834 ft 438 kts 112°
2026-05-05 15:01 48.17385 6.42472 36851 ft 438 kts 112°
2026-05-05 15:02 48.15450 6.51142 36848 ft 439 kts 112°
2026-05-05 15:02 48.13503 6.59789 36837 ft 437 kts 112°
2026-05-05 15:03 48.11570 6.68401 36830 ft 436 kts 113°
2026-05-05 15:03 48.09620 6.76994 36822 ft 436 kts 113°
2026-05-05 15:04 48.07668 6.85590 36836 ft 436 kts 113°
2026-05-05 15:04 48.05721 6.94131 36812 ft 435 kts 113°
2026-05-05 15:05 48.02793 7.06928 36815 ft 436 kts 113°
2026-05-05 15:06 48.00819 7.15499 36819 ft 437 kts 113°
2026-05-05 15:06 47.98832 7.24087 36810 ft 439 kts 113°
2026-05-05 15:07 47.96830 7.32702 36820 ft 440 kts 113°
2026-05-05 15:07 47.94812 7.41353 36840 ft 442 kts 113°
2026-05-05 15:08 47.92786 7.50024 36857 ft 443 kts 113°
2026-05-05 15:08 47.90746 7.58711 36865 ft 444 kts 113°
2026-05-05 15:09 47.88620 7.67271 36866 ft 443 kts 115°
2026-05-05 15:09 47.86416 7.75846 36874 ft 444 kts 115°
2026-05-05 15:10 47.84219 7.84454 36879 ft 443 kts 114°
2026-05-05 15:10 47.82049 7.93012 36850 ft 441 kts 115°
2026-05-05 15:11 47.79866 8.01529 36835 ft 441 kts 115°
2026-05-05 15:11 47.77666 8.10057 36839 ft 442 kts 115°
2026-05-05 15:12 47.75468 8.18576 36843 ft 442 kts 115°
2026-05-05 15:12 47.73264 8.27096 36836 ft 442 kts 115°
2026-05-05 15:13 47.71051 8.35631 36837 ft 442 kts 115°
2026-05-05 15:13 47.68848 8.44077 36836 ft 443 kts 115°
2026-05-05 15:14 47.66830 8.52753 36839 ft 445 kts 112°
2026-05-05 15:14 47.64913 8.61502 36849 ft 446 kts 112°
2026-05-05 15:15 47.62947 8.70230 36849 ft 447 kts 113°
2026-05-05 15:15 47.60958 8.78961 36851 ft 448 kts 113°
2026-05-05 15:16 47.58953 8.87714 36855 ft 449 kts 113°
2026-05-05 15:16 47.56947 8.96430 36860 ft 450 kts 113°
2026-05-05 15:17 47.54920 9.05209 36864 ft 451 kts 113°
2026-05-05 15:17 47.52880 9.13995 36868 ft 452 kts 113°
2026-05-05 15:18 47.50830 9.22785 36866 ft 453 kts 113°
2026-05-05 15:18 47.48770 9.31600 36872 ft 453 kts 113°
2026-05-05 15:19 47.46711 9.40398 36873 ft 454 kts 113°
2026-05-05 15:19 47.44643 9.49185 36868 ft 453 kts 113°
2026-05-05 15:20 47.42560 9.57977 36869 ft 454 kts 112°
2026-05-05 15:20 47.40905 9.67026 36873 ft 458 kts 105°
2026-05-05 15:21 47.39993 9.76335 36869 ft 461 kts 100°
2026-05-05 15:21 47.39254 9.85671 36874 ft 461 kts 100°
2026-05-05 15:22 47.38493 9.95057 36880 ft 460 kts 100°
2026-05-05 15:22 47.37732 10.04451 36886 ft 461 kts 100°
2026-05-05 15:23 47.36966 10.13836 36896 ft 461 kts 100°
2026-05-05 15:23 47.36189 10.23237 36905 ft 461 kts 100°
2026-05-05 15:24 47.35407 10.32626 36914 ft 461 kts 100°
2026-05-05 15:24 47.34621 10.41995 36896 ft 461 kts 100°
2026-05-05 15:25 47.33819 10.51358 36898 ft 460 kts 100°
2026-05-05 15:25 47.33027 10.60667 36883 ft 462 kts 100°
2026-05-05 15:26 47.32218 10.70043 36887 ft 461 kts 100°
2026-05-05 15:26 47.31393 10.79421 36882 ft 461 kts 100°
2026-05-05 15:27 47.30563 10.88817 36880 ft 462 kts 100°
2026-05-05 15:27 47.29729 10.98211 36882 ft 463 kts 100°
2026-05-05 15:28 47.28880 11.07601 36870 ft 462 kts 100°
2026-05-05 15:28 47.28027 11.16987 36870 ft 461 kts 100°
2026-05-05 15:29 47.27175 11.26341 36861 ft 461 kts 100°
2026-05-05 15:29 47.26313 11.35636 36863 ft 461 kts 101°
2026-05-05 15:30 47.25436 11.45001 36834 ft 461 kts 100°
2026-05-05 15:30 47.24556 11.54350 36835 ft 461 kts 100°
2026-05-05 15:31 47.23683 11.63667 36827 ft 459 kts 100°
2026-05-05 15:31 47.22785 11.72971 36850 ft 459 kts 101°
2026-05-05 15:32 47.21877 11.82258 36862 ft 458 kts 101°
2026-05-05 15:32 47.20614 11.91422 36871 ft 457 kts 107°
2026-05-05 15:33 47.18805 12.00297 36890 ft 455 kts 111°
2026-05-05 15:33 47.16840 12.09152 36905 ft 456 kts 111°
2026-05-05 15:34 47.14881 12.18022 36904 ft 456 kts 110°
2026-05-05 15:34 47.12905 12.26898 36932 ft 458 kts 110°
2026-05-05 15:35 47.10913 12.35812 36953 ft 461 kts 110°
2026-05-05 15:35 47.08906 12.44746 36960 ft 461 kts 110°
2026-05-05 15:36 47.06885 12.53687 36971 ft 462 kts 110°
2026-05-05 15:36 47.05199 12.61117 36971 ft 462 kts 110°
2026-05-05 15:37 47.02830 12.71548 36972 ft 463 kts 110°
2026-05-05 15:37 47.01129 12.78990 36965 ft 462 kts 111°
2026-05-05 15:38 46.99081 12.87902 36943 ft 461 kts 111°
2026-05-05 15:38 46.97032 12.96785 36940 ft 460 kts 111°
2026-05-05 15:39 46.94985 13.05648 36930 ft 460 kts 111°
2026-05-05 15:39 46.92929 13.14514 36935 ft 459 kts 111°
2026-05-05 15:40 46.90867 13.23349 36906 ft 459 kts 111°
2026-05-05 15:40 46.88800 13.32185 36910 ft 459 kts 111°
2026-05-05 15:41 46.86720 13.41019 36904 ft 459 kts 111°
2026-05-05 15:41 46.84634 13.49840 36907 ft 458 kts 111°
2026-05-05 15:42 46.82564 13.58577 36910 ft 458 kts 111°
2026-05-05 15:42 46.80471 13.67375 36924 ft 458 kts 111°
2026-05-05 15:43 46.78371 13.76163 36919 ft 459 kts 111°
2026-05-05 15:43 46.76266 13.84948 36933 ft 459 kts 111°
2026-05-05 15:44 46.74154 13.93753 36935 ft 459 kts 111°
2026-05-05 15:44 46.72035 14.02487 36951 ft 460 kts 111°
2026-05-05 15:45 46.69899 14.11252 36950 ft 459 kts 111°
2026-05-05 15:45 46.67760 14.20014 36954 ft 459 kts 111°
2026-05-05 15:46 46.65615 14.28793 36959 ft 460 kts 111°
2026-05-05 15:46 46.63460 14.37572 36963 ft 460 kts 111°
2026-05-05 15:47 46.61297 14.46352 36970 ft 461 kts 111°
2026-05-05 15:47 46.59119 14.55147 36982 ft 462 kts 111°
2026-05-05 15:48 46.56937 14.63932 36981 ft 462 kts 111°
2026-05-05 15:48 46.54746 14.72717 36978 ft 462 kts 111°
2026-05-05 15:49 46.52555 14.81470 36975 ft 461 kts 111°
2026-05-05 15:49 46.50370 14.90157 36974 ft 460 kts 111°
2026-05-05 15:50 46.48166 14.98889 36968 ft 460 kts 111°
2026-05-05 15:50 46.45960 15.07604 36963 ft 459 kts 111°
2026-05-05 15:51 46.43755 15.16287 36967 ft 458 kts 112°
2026-05-05 15:51 46.41537 15.24961 36958 ft 459 kts 112°
2026-05-05 15:52 46.39310 15.33628 36950 ft 458 kts 112°
2026-05-05 15:52 46.37090 15.42270 36948 ft 457 kts 111°
2026-05-05 15:53 46.34873 15.50872 36940 ft 456 kts 112°
2026-05-05 15:53 46.32643 15.59467 36939 ft 455 kts 112°
2026-05-05 15:54 46.30418 15.68035 36930 ft 454 kts 112°
2026-05-05 15:54 46.28201 15.76522 36915 ft 454 kts 112°
2026-05-05 15:55 46.25759 15.84906 36929 ft 451 kts 116°
2026-05-05 15:55 46.22973 15.93023 36915 ft 451 kts 118°
2026-05-05 15:56 46.20166 16.01144 36929 ft 452 kts 118°
2026-05-05 15:56 46.17347 16.09278 36954 ft 453 kts 118°
2026-05-05 15:57 46.14509 16.17433 36961 ft 455 kts 118°
2026-05-05 15:57 46.11657 16.25528 36972 ft 456 kts 118°
2026-05-05 15:58 46.08782 16.33687 36991 ft 458 kts 118°
2026-05-05 15:58 46.05907 16.41880 36991 ft 458 kts 118°
2026-05-05 15:59 46.03018 16.50050 36989 ft 458 kts 118°
2026-05-05 15:59 46.00121 16.58217 36989 ft 457 kts 118°
2026-05-05 16:00 45.97240 16.66324 36970 ft 457 kts 119°
2026-05-05 16:00 45.94333 16.74457 36969 ft 457 kts 119°
2026-05-05 16:01 45.91425 16.82588 36962 ft 458 kts 119°
2026-05-05 16:01 45.88505 16.90708 36964 ft 457 kts 119°
2026-05-05 16:02 45.85580 16.98830 36964 ft 458 kts 119°
2026-05-05 16:02 45.82646 17.06948 36956 ft 459 kts 119°
2026-05-05 16:03 45.79720 17.15022 36953 ft 458 kts 119°
2026-05-05 16:03 45.76777 17.23127 36957 ft 459 kts 119°
2026-05-05 16:04 45.73822 17.31241 36954 ft 459 kts 119°
2026-05-05 16:04 45.70856 17.39352 36943 ft 460 kts 119°
2026-05-05 16:05 45.67880 17.47468 36945 ft 460 kts 120°
2026-05-05 16:05 45.64900 17.55550 36940 ft 460 kts 119°
2026-05-05 16:06 45.61923 17.63629 36936 ft 459 kts 120°
2026-05-05 16:06 45.58962 17.71640 36936 ft 459 kts 120°
2026-05-05 16:07 45.55968 17.79696 36938 ft 460 kts 120°
2026-05-05 16:07 45.52967 17.87762 36943 ft 460 kts 119°
2026-05-05 16:08 45.49955 17.95836 36950 ft 461 kts 120°
2026-05-05 16:08 45.46928 18.03915 36956 ft 462 kts 120°
2026-05-05 16:09 45.43895 18.12001 36971 ft 463 kts 119°
2026-05-05 16:09 45.40909 18.20080 36980 ft 464 kts 119°
2026-05-05 16:10 45.37908 18.28212 36975 ft 463 kts 119°
2026-05-05 16:10 45.34893 18.36318 36978 ft 464 kts 119°
2026-05-05 16:11 45.31883 18.44414 36962 ft 463 kts 119°
2026-05-05 16:12 45.25848 18.60527 36942 ft 461 kts 119°
2026-05-05 16:13 45.18336 18.80471 36916 ft 458 kts 119°
2026-05-05 16:13 45.15320 18.88437 36911 ft 458 kts 119°
2026-05-05 16:14 45.09276 19.04349 36931 ft 459 kts 118°
2026-05-05 16:15 45.03188 19.20249 36936 ft 460 kts 119°
2026-05-05 16:16 44.97064 19.36161 36940 ft 461 kts 119°
2026-05-05 16:17 44.92447 19.48105 36947 ft 462 kts 119°
2026-05-05 16:18 44.87829 19.60010 36952 ft 463 kts 119°
2026-05-05 16:19 44.83174 19.71955 36948 ft 463 kts 119°
2026-05-05 16:19 44.78501 19.83885 36953 ft 464 kts 119°
2026-05-05 16:20 44.72239 19.99786 36948 ft 464 kts 119°
2026-05-05 16:22 44.64394 20.19582 36938 ft 464 kts 119°
2026-05-05 16:23 44.58087 20.35411 36939 ft 465 kts 119°
2026-05-05 16:23 44.53339 20.47251 36941 ft 465 kts 119°
2026-05-05 16:24 44.50704 20.53818 36945 ft 465 kts 119°
2026-05-05 16:25 44.45411 20.66952 36953 ft 466 kts 119°
2026-05-05 16:25 44.41151 20.77454 36946 ft 465 kts 119°
2026-05-05 16:26 44.34765 20.93180 36950 ft 465 kts 119°
2026-05-05 16:27 44.31562 21.01028 36950 ft 465 kts 119°
2026-05-05 16:27 44.28343 21.08864 36949 ft 465 kts 119°
2026-05-05 16:28 44.25132 21.16692 36951 ft 465 kts 119°
2026-05-05 16:28 44.21910 21.24501 36946 ft 464 kts 119°
2026-05-05 16:29 44.18684 21.32283 36937 ft 464 kts 120°
2026-05-05 16:29 44.15258 21.39898 36934 ft 463 kts 121°
2026-05-05 16:30 44.11850 21.47487 36941 ft 463 kts 121°
2026-05-05 16:30 44.08454 21.55036 36941 ft 464 kts 121°
2026-05-05 16:31 44.05012 21.62639 36945 ft 464 kts 121°
2026-05-05 16:31 44.01562 21.70226 36948 ft 464 kts 121°
2026-05-05 16:32 43.98099 21.77822 36946 ft 465 kts 121°
2026-05-05 16:32 43.94637 21.85404 36957 ft 465 kts 121°
2026-05-05 16:33 43.91156 21.92992 36979 ft 467 kts 121°
2026-05-05 16:33 43.87660 22.00580 36980 ft 467 kts 121°
2026-05-05 16:34 43.84188 22.08137 36985 ft 468 kts 121°
2026-05-05 16:34 43.80680 22.15726 36981 ft 467 kts 121°
2026-05-05 16:35 43.77169 22.23306 36982 ft 467 kts 121°
2026-05-05 16:35 43.73666 22.30860 36966 ft 465 kts 121°
2026-05-05 16:36 43.70156 22.38386 36972 ft 466 kts 121°
2026-05-05 16:36 43.66972 22.46162 36968 ft 464 kts 114°
2026-05-05 16:37 43.64077 22.54116 36962 ft 463 kts 115°
2026-05-05 16:37 43.61176 22.61996 36971 ft 463 kts 115°
2026-05-05 16:38 43.58238 22.69979 36972 ft 463 kts 115°
2026-05-05 16:38 43.55337 22.77842 36973 ft 464 kts 115°
2026-05-05 16:39 43.52405 22.85755 36975 ft 463 kts 115°
2026-05-05 16:39 43.49465 22.93672 36977 ft 464 kts 115°
2026-05-05 16:40 43.46519 23.01581 36988 ft 465 kts 115°
2026-05-05 16:40 43.43559 23.09503 36996 ft 465 kts 115°
2026-05-05 16:41 43.40598 23.17419 36991 ft 465 kts 115°
2026-05-05 16:41 43.37634 23.25310 37001 ft 464 kts 115°
2026-05-05 16:42 43.34668 23.33193 36998 ft 464 kts 115°
2026-05-05 16:42 43.31685 23.41090 37004 ft 465 kts 115°
2026-05-05 16:43 43.28702 23.48952 37005 ft 465 kts 115°
2026-05-05 16:43 43.25738 23.56762 37010 ft 464 kts 115°
2026-05-05 16:44 43.22747 23.64618 37010 ft 464 kts 115°
2026-05-05 16:44 43.19756 23.72452 37003 ft 463 kts 115°
2026-05-05 16:45 43.16766 23.80270 37003 ft 463 kts 115°
2026-05-05 16:45 43.13773 23.88066 36993 ft 462 kts 115°
2026-05-05 16:46 43.10771 23.95865 36994 ft 463 kts 115°
2026-05-05 16:46 43.07769 24.03637 37001 ft 463 kts 115°
2026-05-05 16:47 43.04781 24.11371 37010 ft 463 kts 115°
2026-05-05 16:47 43.01759 24.19135 37006 ft 462 kts 116°
2026-05-05 16:48 42.98747 24.26885 37003 ft 462 kts 115°
2026-05-05 16:48 42.95721 24.34644 36998 ft 463 kts 116°
2026-05-05 16:49 42.92678 24.42408 37001 ft 463 kts 116°
2026-05-05 16:49 42.89632 24.50161 37004 ft 464 kts 116°
2026-05-05 16:50 42.86585 24.57923 37000 ft 464 kts 116°
2026-05-05 16:50 42.83548 24.65625 37006 ft 464 kts 116°
2026-05-05 16:51 42.80484 24.73368 37007 ft 464 kts 116°
2026-05-05 16:51 42.77414 24.81104 36997 ft 465 kts 116°
2026-05-05 16:52 42.74334 24.88850 37006 ft 465 kts 116°
2026-05-05 16:52 42.71254 24.96582 36998 ft 464 kts 116°
2026-05-05 16:53 42.68191 25.04249 36993 ft 463 kts 116°
2026-05-05 16:53 42.65116 25.11930 36982 ft 462 kts 116°
2026-05-05 16:54 42.62035 25.19586 36985 ft 461 kts 117°
2026-05-05 16:54 42.58954 25.27221 36986 ft 461 kts 116°
2026-05-05 16:55 42.55878 25.34869 36984 ft 461 kts 116°
2026-05-05 16:55 42.52780 25.42503 36985 ft 462 kts 117°
2026-05-05 16:56 42.49705 25.50083 36978 ft 461 kts 117°
2026-05-05 16:56 42.46595 25.57707 36987 ft 462 kts 117°
2026-05-05 16:57 42.43482 25.65334 36990 ft 463 kts 117°
2026-05-05 16:57 42.40361 25.72960 36988 ft 464 kts 117°
2026-05-05 16:58 42.37227 25.80600 36993 ft 464 kts 117°
2026-05-05 16:58 42.34081 25.88234 37004 ft 465 kts 117°
2026-05-05 16:59 42.30974 25.95781 37009 ft 465 kts 117°
2026-05-05 16:59 42.27790 26.03505 37009 ft 467 kts 117°
2026-05-05 17:00 42.24633 26.11112 37016 ft 467 kts 117°
2026-05-05 17:00 42.21447 26.18739 37024 ft 467 kts 117°
2026-05-05 17:01 42.18253 26.26393 37042 ft 468 kts 117°
2026-05-05 17:01 42.15063 26.34044 37050 ft 468 kts 117°
2026-05-05 17:02 42.11886 26.41633 37057 ft 467 kts 117°
2026-05-05 17:02 42.08692 26.49230 36911 ft 464 kts 117°
2026-05-05 17:03 42.07104 26.52996 36573 ft 462 kts 118°
2026-05-05 17:03 42.05517 26.56759 35895 ft 463 kts 117°
2026-05-05 17:03 42.03914 26.60551 34898 ft 470 kts 117°
2026-05-05 17:03 42.02290 26.64390 34099 ft 470 kts 117°
2026-05-05 17:04 42.00682 26.68194 33571 ft 464 kts 117°
2026-05-05 17:04 41.99087 26.71962 32846 ft 463 kts 117°
2026-05-05 17:04 41.97492 26.75720 32101 ft 462 kts 117°
2026-05-05 17:04 41.95878 26.79465 31295 ft 463 kts 118°
2026-05-05 17:05 41.94209 26.83165 30515 ft 464 kts 119°
2026-05-05 17:05 41.92517 26.86860 30042 ft 463 kts 119°
2026-05-05 17:05 41.90833 26.90536 29772 ft 461 kts 119°
2026-05-05 17:05 41.89163 26.94140 29306 ft 461 kts 122°
2026-05-05 17:06 41.87172 26.97512 28774 ft 458 kts 128°
2026-05-05 17:06 41.85144 27.00768 28259 ft 450 kts 128°
2026-05-05 17:06 41.83147 27.03966 27727 ft 443 kts 127°
2026-05-05 17:06 41.81430 27.07332 27210 ft 436 kts 116°
2026-05-05 17:07 41.79797 27.10774 26679 ft 440 kts 126°
2026-05-05 17:07 41.77836 27.13913 26163 ft 438 kts 129°
2026-05-05 17:07 41.75816 27.16940 25628 ft 432 kts 130°
2026-05-05 17:07 41.73834 27.19927 25112 ft 425 kts 129°
2026-05-05 17:08 41.72101 27.23083 24582 ft 417 kts 116°
2026-05-05 17:08 41.70965 27.26642 24060 ft 416 kts 104°
2026-05-05 17:08 41.70371 27.30398 23533 ft 410 kts 101°
2026-05-05 17:08 41.69381 27.33954 23010 ft 407 kts 117°
2026-05-05 17:09 41.67732 27.37007 22482 ft 404 kts 130°
2026-05-05 17:09 41.65782 27.39671 21966 ft 398 kts 134°
2026-05-05 17:09 41.63839 27.42211 21447 ft 392 kts 133°
2026-05-05 17:09 41.61936 27.44787 20924 ft 386 kts 132°
2026-05-05 17:10 41.60106 27.47376 20398 ft 381 kts 131°
2026-05-05 17:10 41.58326 27.49967 19875 ft 376 kts 130°
2026-05-05 17:10 41.56585 27.52534 19346 ft 370 kts 130°
2026-05-05 17:10 41.54875 27.55074 18815 ft 365 kts 130°
2026-05-05 17:11 41.53183 27.57590 18296 ft 363 kts 130°
2026-05-05 17:11 41.51504 27.60076 17771 ft 359 kts 130°
2026-05-05 17:11 41.49829 27.62546 17229 ft 356 kts 130°
2026-05-05 17:11 41.48174 27.64983 16715 ft 354 kts 130°
2026-05-05 17:12 41.47079 27.66592 16375 ft 352 kts 130°
2026-05-05 17:12 41.45440 27.68996 15844 ft 349 kts 130°
2026-05-05 17:12 41.43818 27.71383 15325 ft 346 kts 130°
2026-05-05 17:12 41.42204 27.73757 14796 ft 344 kts 130°
2026-05-05 17:13 41.40601 27.76112 14278 ft 342 kts 129°
2026-05-05 17:13 41.39004 27.78450 13743 ft 339 kts 130°
2026-05-05 17:13 41.37422 27.80774 13230 ft 338 kts 129°
2026-05-05 17:13 41.35856 27.83080 12694 ft 335 kts 129°
2026-05-05 17:14 41.34297 27.85362 12164 ft 331 kts 129°
2026-05-05 17:14 41.32759 27.87608 11642 ft 326 kts 129°
2026-05-05 17:14 41.31245 27.89822 11120 ft 321 kts 129°
2026-05-05 17:14 41.29754 27.92002 10591 ft 316 kts 129°
2026-05-05 17:15 41.28282 27.94147 10076 ft 311 kts 129°
2026-05-05 17:15 41.26828 27.96264 9538 ft 309 kts 129°
2026-05-05 17:15 41.25392 27.98372 9016 ft 305 kts 129°
2026-05-05 17:15 41.23984 28.00440 8470 ft 297 kts 130°
2026-05-05 17:16 41.22602 28.02453 7953 ft 292 kts 130°
2026-05-05 17:16 41.21262 28.04402 7435 ft 287 kts 130°
2026-05-05 17:16 41.19911 28.06362 7002 ft 278 kts 130°
2026-05-05 17:16 41.18647 28.08188 6764 ft 268 kts 130°
2026-05-05 17:17 41.17405 28.09991 6511 ft 262 kts 130°
2026-05-05 17:17 41.16168 28.11785 6264 ft 265 kts 130°
2026-05-05 17:17 41.14939 28.13574 6012 ft 260 kts 130°
2026-05-05 17:17 41.13707 28.15340 5765 ft 261 kts 130°
2026-05-05 17:18 41.12493 28.17108 5514 ft 257 kts 130°
2026-05-05 17:18 41.11283 28.18871 5269 ft 259 kts 130°
2026-05-05 17:18 41.10073 28.20628 5026 ft 255 kts 131°
2026-05-05 17:18 41.08881 28.22354 4991 ft 258 kts 130°
2026-05-05 17:19 41.07678 28.24101 4990 ft 255 kts 130°
2026-05-05 17:19 41.06488 28.25830 4992 ft 256 kts 130°
2026-05-05 17:19 41.05278 28.27572 4991 ft 255 kts 131°
2026-05-05 17:19 41.04074 28.29303 4990 ft 255 kts 131°
2026-05-05 17:20 41.02869 28.31037 4991 ft 256 kts 131°
2026-05-05 17:20 41.01667 28.32765 4991 ft 255 kts 131°
2026-05-05 17:20 41.00469 28.34488 4991 ft 255 kts 131°
2026-05-05 17:20 40.99275 28.36223 4992 ft 256 kts 131°
2026-05-05 17:21 40.98067 28.37948 4991 ft 254 kts 130°
2026-05-05 17:21 40.97033 28.39832 4992 ft 253 kts 117°
2026-05-05 17:21 40.96175 28.41873 4992 ft 254 kts 117°
2026-05-05 17:22 40.94449 28.45903 4990 ft 253 kts 117°
2026-05-05 17:22 40.93581 28.47931 4990 ft 254 kts 117°
2026-05-05 17:22 40.92709 28.49959 4991 ft 253 kts 118°
2026-05-05 17:22 40.91835 28.51979 4993 ft 253 kts 118°
2026-05-05 17:23 40.90966 28.53991 4986 ft 247 kts 118°
2026-05-05 17:23 40.90128 28.55907 4993 ft 238 kts 118°
2026-05-05 17:23 40.89396 28.57860 4984 ft 236 kts 101°
2026-05-05 17:23 40.89401 28.59988 4993 ft 232 kts 70°
2026-05-05 17:24 40.89925 28.62003 4987 ft 232 kts 68°
2026-05-05 17:24 40.90458 28.63979 4985 ft 220 kts 68°
2026-05-05 17:24 40.90955 28.65847 4995 ft 216 kts 68°
2026-05-05 17:24 40.91450 28.67727 4992 ft 216 kts 65°
2026-05-05 17:25 40.92283 28.69329 4994 ft 212 kts 37°
2026-05-05 17:25 40.93092 28.70027 4996 ft 211 kts 25°
2026-05-05 17:25 40.94801 28.71233 4990 ft 210 kts 26°
2026-05-05 17:25 40.96081 28.72164 4990 ft 210 kts 27°
2026-05-05 17:26 40.97400 28.72975 4991 ft 210 kts 15°
2026-05-05 17:26 40.98824 28.73322 4993 ft 208 kts
2026-05-05 17:26 41.00270 28.73375 4991 ft 208 kts 358°
2026-05-05 17:26 41.01718 28.73335 4985 ft 208 kts 358°
2026-05-05 17:27 41.03176 28.73304 4825 ft 209 kts 359°
2026-05-05 17:27 41.04627 28.73271 4529 ft 207 kts 358°
2026-05-05 17:27 41.06056 28.73240 4244 ft 204 kts 359°
2026-05-05 17:27 41.07494 28.73205 3969 ft 207 kts 358°
2026-05-05 17:28 41.08882 28.73177 3732 ft 197 kts 359°
2026-05-05 17:28 41.10219 28.73145 3453 ft 187 kts 358°
2026-05-05 17:28 41.11495 28.73116 3201 ft 180 kts 359°
2026-05-05 17:28 41.12723 28.73087 2950 ft 173 kts 359°
2026-05-05 17:29 41.13907 28.73065 2737 ft 166 kts 359°
2026-05-05 17:29 41.15032 28.73041 2512 ft 156 kts 356°
2026-05-05 17:29 41.16160 28.73008 2316 ft 165 kts 357°
2026-05-05 17:29 41.17300 28.72983 2091 ft 164 kts 358°
2026-05-05 17:30 41.18418 28.72959 1875 ft 154 kts 357°
2026-05-05 17:30 41.19447 28.72930 1682 ft 141 kts 359°
2026-05-05 17:30 41.20423 28.72908 1505 ft 146 kts 359°
2026-05-05 17:30 41.21413 28.72888 1280 ft 139 kts 359°
2026-05-05 17:31 41.22396 28.72868 1106 ft 143 kts 359°
2026-05-05 17:31 41.23362 28.72851 909 ft 140 kts 359°
2026-05-05 17:31 41.24330 28.72829 732 ft 140 kts 358°
2026-05-05 17:31 41.25310 28.72802 547 ft 141 kts 358°
2026-05-05 17:32 41.26284 28.72775 377 ft 140 kts 359°
2026-05-05 17:32 41.27224 28.72762 332 ft 122 kts 357°
2026-05-05 17:32 41.27792 28.72736 332 ft 43 kts 359°
2026-05-05 17:32 41.28000 28.72783 331 ft 20 kts 25°
2026-05-05 17:33 41.28085 28.72842 330 ft 11 kts 29°
2026-05-05 17:33 41.28126 28.72882 334 ft 5 kts 41°
2026-05-05 17:33 41.28145 28.72907 330 ft 1 kts 47°
2026-05-05 17:33 41.28145 28.72908 332 ft 0 kts 47°
2026-05-05 17:34 41.28148 28.72934 330 ft 5 kts 94°
2026-05-05 17:34 41.28117 28.72957 333 ft 8 kts 163°
2026-05-05 17:34 41.28045 28.72961 330 ft 13 kts 179°
2026-05-05 17:35 41.27940 28.72963 332 ft 17 kts 179°
2026-05-05 17:35 41.27809 28.72966 331 ft 21 kts 179°
2026-05-05 17:35 41.27712 28.72969 332 ft 14 kts 177°
2026-05-05 17:35 41.27601 28.72976 330 ft 18 kts 177°
2026-05-05 17:36 41.27467 28.72978 332 ft 18 kts 180°
2026-05-05 17:36 41.27331 28.72979 331 ft 21 kts 179°
2026-05-05 17:36 41.27178 28.72983 334 ft 24 kts 179°
2026-05-05 17:36 41.27005 28.72989 332 ft 26 kts 179°
2026-05-05 17:37 41.26887 28.72992 334 ft 8 kts 178°
2026-05-05 17:37 41.26880 28.72994 334 ft 0 kts 173°
2026-05-05 17:37 41.26868 28.73047 330 ft 9 kts 102°
2026-05-05 17:37 41.26868 28.73145 334 ft 13 kts 89°
2026-05-05 17:38 41.26870 28.73283 332 ft 17 kts 89°
2026-05-05 17:38 41.26872 28.73448 334 ft 17 kts 90°
2026-05-05 17:38 41.26846 28.73526 332 ft 4 kts 150°
2026-05-05 17:38 41.26804 28.73529 334 ft 7 kts 182°
2026-05-05 17:39 41.26780 28.73529 332 ft 0 kts 179°
2026-05-05 17:39 41.26778 28.73529 332 ft 0 kts 179°